Time,TemperatureF,DewpointF,PressureIn,WindDirection,WindDirectionDegrees,WindSpeedMPH,WindSpeedGustMPH,Humidity,HourlyPrecipIn,Conditions,Clouds,dailyrainin,SoftwareType,DateUTC
2013-05-11 00:00:00,61.6,60.7,29.80,SW,225,3.0,-999.0,97,0.00,,,0.05,Wunderground v.1.15,2013-05-11 04:00:00,
2013-05-11 00:05:00,61.6,60.7,29.80,SSE,162,3.0,6.0,97,0.00,,,0.00,Wunderground v.1.15,2013-05-11 04:05:00,
2013-05-11 00:10:00,61.7,60.8,29.80,SSW,200,4.0,5.0,97,0.00,,,0.00,Wunderground v.1.15,2013-05-11 04:10:00,
2013-05-11 00:15:00,61.7,60.8,29.80,SSW,203,4.0,-999.0,97,0.00,,,0.05,Wunderground v.1.15,2013-05-11 04:15:00,
2013-05-11 00:20:00,61.7,60.8,29.80,SSW,203,4.0,-999.0,97,0.00,,,0.05,Wunderground v.1.15,2013-05-11 04:20:00,
2013-05-11 00:25:00,61.7,60.8,29.80,SSW,203,4.0,-999.0,97,0.00,,,0.05,Wunderground v.1.15,2013-05-11 04:25:00,
2013-05-11 00:30:00,61.7,60.8,29.80,SW,225,4.0,-999.0,97,0.00,,,0.05,Wunderground v.1.15,2013-05-11 04:30:00,
2013-05-11 00:35:00,61.7,60.8,29.80,SSW,203,3.0,-999.0,97,0.00,,,0.05,Wunderground v.1.15,2013-05-11 04:35:00,
2013-05-11 00:40:00,61.7,60.8,29.80,SSW,203,4.0,-999.0,97,0.00,,,0.05,Wunderground v.1.15,2013-05-11 04:40:00,
2013-05-11 00:45:00,61.6,60.7,29.80,SSW,203,5.0,-999.0,97,0.00,,,0.05,Wunderground v.1.15,2013-05-11 04:45:00,
2013-05-11 00:50:00,61.6,60.7,29.80,SSW,203,4.0,-999.0,97,0.00,,,0.05,Wunderground v.1.15,2013-05-11 04:50:00,
2013-05-11 00:55:00,61.6,60.7,29.79,SSW,203,4.0,-999.0,97,0.00,,,0.05,Wunderground v.1.15,2013-05-11 04:55:00,
2013-05-11 01:00:00,61.7,60.8,29.79,SSW,203,3.0,-999.0,97,0.00,,,0.05,Wunderground v.1.15,2013-05-11 05:00:00,
2013-05-11 01:05:00,61.6,60.7,29.79,SW,225,3.0,-999.0,97,0.00,,,0.05,Wunderground v.1.15,2013-05-11 05:05:00,
2013-05-11 01:10:00,61.6,60.7,29.79,SSW,203,4.0,-999.0,97,0.00,,,0.05,Wunderground v.1.15,2013-05-11 05:10:00,
2013-05-11 01:15:00,61.6,60.7,29.79,SSW,203,4.0,-999.0,97,0.00,,,0.05,Wunderground v.1.15,2013-05-11 05:15:00,
2013-05-11 01:20:00,61.6,60.4,29.79,SSW,203,5.0,-999.0,96,0.00,,,0.05,Wunderground v.1.15,2013-05-11 05:20:00,
2013-05-11 01:25:00,61.6,60.4,29.80,SSW,203,5.0,-999.0,96,0.00,,,0.05,Wunderground v.1.15,2013-05-11 05:25:00,
2013-05-11 01:30:00,61.7,60.5,29.80,SSW,203,5.0,-999.0,96,0.00,,,0.05,Wunderground v.1.15,2013-05-11 05:30:00,
2013-05-11 01:35:00,61.7,60.5,29.80,SSW,203,4.0,-999.0,96,0.00,,,0.05,Wunderground v.1.15,2013-05-11 05:35:00,
2013-05-11 01:40:00,61.7,60.5,29.80,SSW,203,4.0,-999.0,96,0.00,,,0.05,Wunderground v.1.15,2013-05-11 05:40:00,
2013-05-11 01:45:00,61.7,60.5,29.80,SSW,203,5.0,-999.0,96,0.00,,,0.05,Wunderground v.1.15,2013-05-11 05:45:00,
2013-05-11 01:50:00,61.7,60.5,29.80,SW,225,4.0,-999.0,96,0.00,,,0.05,Wunderground v.1.15,2013-05-11 05:50:00,
2013-05-11 01:55:00,61.7,60.5,29.80,SSW,203,4.0,-999.0,96,0.00,,,0.05,Wunderground v.1.15,2013-05-11 05:55:00,
2013-05-11 02:00:00,61.7,60.5,29.79,SSW,203,6.0,-999.0,96,0.00,,,0.05,Wunderground v.1.15,2013-05-11 06:00:00,
2013-05-11 02:05:00,61.7,60.5,29.79,SSW,203,4.0,-999.0,96,0.00,,,0.05,Wunderground v.1.15,2013-05-11 06:05:00,
2013-05-11 02:10:00,61.7,60.5,29.79,SSW,203,5.0,-999.0,96,0.00,,,0.05,Wunderground v.1.15,2013-05-11 06:10:00,
2013-05-11 02:15:00,61.0,59.3,29.80,NE,49,4.0,6.0,94,0.61,,,0.04,Wunderground v.1.15,2013-05-11 06:15:00,
2013-05-11 02:20:00,59.7,57.7,29.81,NNE,31,3.0,3.0,93,0.12,,,0.05,Wunderground v.1.15,2013-05-11 06:20:00,
2013-05-11 02:25:00,58.8,57.1,29.81,NE,37,2.0,6.0,94,0.06,,,0.05,Wunderground v.1.15,2013-05-11 06:25:00,
2013-05-11 02:30:00,58.6,56.9,29.81,NW,315,1.0,-999.0,94,0.05,,,0.05,Wunderground v.1.15,2013-05-11 06:30:00,
2013-05-11 02:35:00,57.7,56.0,29.81,NE,54,2.0,6.0,94,0.00,,,0.05,Wunderground v.1.15,2013-05-11 06:35:00,
2013-05-11 02:40:00,57.2,55.8,29.81,ENE,75,2.0,2.0,95,0.00,,,0.05,Wunderground v.1.15,2013-05-11 06:40:00,
2013-05-11 02:45:00,57.1,55.7,29.81,NE,45,2.0,-999.0,95,0.05,,,0.05,Wunderground v.1.15,2013-05-11 06:45:00,
2013-05-11 02:50:00,56.7,55.3,29.81,NNW,335,1.0,6.0,95,0.00,,,0.05,Wunderground v.1.15,2013-05-11 06:50:00,
2013-05-11 02:55:00,56.5,55.1,29.81,NNW,347,1.0,6.0,95,0.00,,,0.05,Wunderground v.1.15,2013-05-11 06:55:00,
2013-05-11 03:00:00,56.4,55.3,29.81,NNE,13,1.0,1.0,96,0.00,,,0.05,Wunderground v.1.15,2013-05-11 07:00:00,
2013-05-11 03:05:00,56.3,55.2,29.81,WSW,248,1.0,-999.0,96,0.05,,,0.05,Wunderground v.1.15,2013-05-11 07:05:00,
2013-05-11 03:10:00,55.9,54.5,29.81,North,353,2.0,4.0,95,0.00,,,0.05,Wunderground v.1.15,2013-05-11 07:10:00,
2013-05-11 03:15:00,55.7,54.3,29.81,SSW,207,2.0,4.0,95,0.00,,,0.05,Wunderground v.1.15,2013-05-11 07:15:00,
2013-05-11 03:20:00,55.3,53.9,29.81,WNW,301,1.0,1.0,95,0.00,,,0.05,Wunderground v.1.15,2013-05-11 07:20:00,
2013-05-11 03:25:00,55.0,53.6,29.81,WNW,286,2.0,2.0,95,0.00,,,0.05,Wunderground v.1.15,2013-05-11 07:25:00,
2013-05-11 03:30:00,54.9,53.5,29.81,West,270,1.0,-999.0,95,0.00,,,0.05,Wunderground v.1.15,2013-05-11 07:30:00,
2013-05-11 03:35:00,54.6,53.2,29.82,SSE,151,1.0,2.0,95,0.00,,,0.05,Wunderground v.1.15,2013-05-11 07:35:00,
2013-05-11 03:40:00,54.4,53.0,29.82,East,87,1.0,2.0,95,0.00,,,0.05,Wunderground v.1.15,2013-05-11 07:40:00,
2013-05-11 03:45:00,54.2,52.8,29.82,NE,34,1.0,2.0,95,0.00,,,0.05,Wunderground v.1.15,2013-05-11 07:45:00,
2013-05-11 03:50:00,54.0,52.6,29.82,ESE,118,2.0,2.0,95,0.00,,,0.05,Wunderground v.1.15,2013-05-11 07:50:00,
2013-05-11 03:55:00,54.0,52.6,29.82,NNE,23,1.0,-999.0,95,0.00,,,0.05,Wunderground v.1.15,2013-05-11 07:55:00,
2013-05-11 04:00:00,53.9,52.5,29.82,ESE,118,1.0,1.0,95,0.00,,,0.05,Wunderground v.1.15,2013-05-11 08:00:00,
2013-05-11 04:05:00,53.8,52.4,29.82,ESE,113,0.0,-999.0,95,0.00,,,0.05,Wunderground v.1.15,2013-05-11 08:05:00,
2013-05-11 04:10:00,53.7,52.3,29.82,West,265,1.0,1.0,95,0.00,,,0.05,Wunderground v.1.15,2013-05-11 08:10:00,
2013-05-11 04:15:00,53.7,52.3,29.82,West,270,1.0,-999.0,95,0.00,,,0.05,Wunderground v.1.15,2013-05-11 08:15:00,
2013-05-11 04:20:00,53.5,52.1,29.82,SW,216,1.0,1.0,95,0.00,,,0.05,Wunderground v.1.15,2013-05-11 08:20:00,
2013-05-11 04:25:00,53.4,52.0,29.82,SSW,198,1.0,1.0,95,0.00,,,0.05,Wunderground v.1.15,2013-05-11 08:25:00,
2013-05-11 04:30:00,53.4,52.0,29.82,SSW,203,0.0,-999.0,95,0.00,,,0.05,Wunderground v.1.15,2013-05-11 08:30:00,
2013-05-11 04:35:00,53.4,52.0,29.82,SW,221,0.0,1.0,95,0.00,,,0.05,Wunderground v.1.15,2013-05-11 08:35:00,
2013-05-11 04:40:00,53.4,52.0,29.82,West,270,1.0,-999.0,95,0.00,,,0.05,Wunderground v.1.15,2013-05-11 08:40:00,
2013-05-11 04:45:00,53.2,51.8,29.82,ESE,123,1.0,1.0,95,0.00,,,0.05,Wunderground v.1.15,2013-05-11 08:45:00,
2013-05-11 04:50:00,53.1,51.7,29.82,SW,225,1.0,1.0,95,0.00,,,0.05,Wunderground v.1.15,2013-05-11 08:50:00,
2013-05-11 04:55:00,52.9,51.5,29.82,NE,51,2.0,2.0,95,0.00,,,0.05,Wunderground v.1.15,2013-05-11 08:55:00,
2013-05-11 05:00:00,52.8,51.4,29.82,NNE,27,2.0,2.0,95,0.00,,,0.05,Wunderground v.1.15,2013-05-11 09:00:00,
2013-05-11 05:05:00,52.7,51.3,29.82,NNE,23,1.0,-999.0,95,0.00,,,0.05,Wunderground v.1.15,2013-05-11 09:05:00,
2013-05-11 05:10:00,52.5,51.1,29.82,NNE,25,2.0,2.0,95,0.00,,,0.05,Wunderground v.1.15,2013-05-11 09:10:00,
2013-05-11 05:15:00,52.3,50.9,29.82,East,87,2.0,2.0,95,0.00,,,0.05,Wunderground v.1.15,2013-05-11 09:15:00,
2013-05-11 05:20:00,52.3,50.9,29.82,NNW,345,1.0,1.0,95,0.00,,,0.05,Wunderground v.1.15,2013-05-11 09:20:00,
2013-05-11 05:25:00,52.2,51.1,29.82,WNW,283,1.0,1.0,96,0.00,,,0.05,Wunderground v.1.15,2013-05-11 09:25:00,
2013-05-11 05:30:00,52.2,51.1,29.82,NNE,23,0.0,-999.0,96,0.00,,,0.05,Wunderground v.1.15,2013-05-11 09:30:00,
2013-05-11 05:35:00,52.2,51.1,29.82,NNE,16,1.0,1.0,96,0.00,,,0.05,Wunderground v.1.15,2013-05-11 09:35:00,
2013-05-11 05:40:00,52.1,50.7,29.82,NNE,23,2.0,-999.0,95,0.00,,,0.05,Wunderground v.1.15,2013-05-11 09:40:00,
2013-05-11 05:45:00,51.8,50.4,29.83,NNE,22,1.0,3.0,95,0.00,,,0.05,Wunderground v.1.15,2013-05-11 09:45:00,
2013-05-11 05:50:00,51.6,50.2,29.83,ENE,67,2.0,4.0,95,0.00,,,0.05,Wunderground v.1.15,2013-05-11 09:50:00,
2013-05-11 05:55:00,51.3,49.9,29.83,NE,39,2.0,4.0,95,0.00,,,0.05,Wunderground v.1.15,2013-05-11 09:55:00,
2013-05-11 06:00:00,51.0,49.6,29.83,NE,34,3.0,4.0,95,0.00,,,0.05,Wunderground v.1.15,2013-05-11 10:00:00,
2013-05-11 06:10:00,50.6,49.2,29.83,ENE,58,4.0,4.0,95,0.00,,,0.05,Wunderground v.1.15,2013-05-11 10:10:00,
2013-05-11 06:15:00,50.9,49.5,29.83,NE,45,4.0,-999.0,95,0.00,,,0.05,Wunderground v.1.15,2013-05-11 10:15:00,
2013-05-11 06:25:00,50.2,48.8,29.84,NNE,29,2.0,3.0,95,0.00,,,0.05,Wunderground v.1.15,2013-05-11 10:25:00,
2013-05-11 06:30:00,50.1,48.7,29.84,NNE,27,2.0,5.0,95,0.00,,,0.05,Wunderground v.1.15,2013-05-11 10:30:00,
2013-05-11 06:35:00,50.0,48.6,29.84,NNE,18,2.0,5.0,95,0.00,,,0.05,Wunderground v.1.15,2013-05-11 10:35:00,
2013-05-11 06:40:00,49.8,48.4,29.85,NNE,29,2.0,2.0,95,0.00,,,0.05,Wunderground v.1.15,2013-05-11 10:40:00,
2013-05-11 06:45:00,49.7,48.3,29.84,NNE,32,2.0,2.0,95,0.00,,,0.05,Wunderground v.1.15,2013-05-11 10:45:00,
2013-05-11 06:50:00,49.7,48.6,29.85,NNW,339,2.0,2.0,96,0.00,,,0.05,Wunderground v.1.15,2013-05-11 10:50:00,
2013-05-11 06:55:00,49.6,48.2,29.85,WNW,298,2.0,2.0,95,0.00,,,0.05,Wunderground v.1.15,2013-05-11 10:55:00,
2013-05-11 07:05:00,49.3,47.9,29.85,NNE,18,2.0,3.0,95,0.00,,,0.05,Wunderground v.1.15,2013-05-11 11:05:00,
2013-05-11 07:10:00,49.1,47.7,29.85,NW,307,2.0,2.0,95,0.00,,,0.05,Wunderground v.1.15,2013-05-11 11:10:00,
2013-05-11 07:15:00,49.1,47.7,29.85,East,86,2.0,2.0,95,0.00,,,0.05,Wunderground v.1.15,2013-05-11 11:15:00,
2013-05-11 07:20:00,49.0,47.6,29.85,ESE,102,2.0,2.0,95,0.00,,,0.05,Wunderground v.1.15,2013-05-11 11:20:00,
2013-05-11 07:25:00,49.0,47.6,29.86,WNW,298,2.0,2.0,95,0.00,,,0.05,Wunderground v.1.15,2013-05-11 11:25:00,
2013-05-11 07:30:00,48.9,47.5,29.86,NNE,28,1.0,3.0,95,0.00,,,0.05,Wunderground v.1.15,2013-05-11 11:30:00,
2013-05-11 07:40:00,48.9,47.5,29.85,ENE,71,1.0,4.0,95,0.00,,,0.05,Wunderground v.1.15,2013-05-11 11:40:00,
2013-05-11 07:45:00,48.8,47.4,29.85,North,360,2.0,4.0,95,0.00,,,0.05,Wunderground v.1.15,2013-05-11 11:45:00,
2013-05-11 07:50:00,48.7,47.3,29.84,NNE,27,3.0,3.0,95,0.00,,,0.05,Wunderground v.1.15,2013-05-11 11:50:00,
2013-05-11 07:55:00,48.6,47.2,29.85,NNW,340,3.0,3.0,95,0.00,,,0.05,Wunderground v.1.15,2013-05-11 11:55:00,
2013-05-11 08:00:00,48.4,47.0,29.85,NNE,32,2.0,4.0,95,0.00,,,0.05,Wunderground v.1.15,2013-05-11 12:00:00,
2013-05-11 08:10:00,48.4,47.0,29.85,NW,315,2.0,2.0,95,0.00,,,0.05,Wunderground v.1.15,2013-05-11 12:10:00,
2013-05-11 08:15:00,48.4,47.0,29.85,ESE,104,1.0,2.0,95,0.00,,,0.05,Wunderground v.1.15,2013-05-11 12:15:00,
2013-05-11 08:20:00,48.5,46.9,29.85,NW,319,1.0,1.0,94,0.00,,,0.05,Wunderground v.1.15,2013-05-11 12:20:00,
2013-05-11 08:25:00,48.5,47.1,29.85,SSE,151,1.0,1.0,95,0.00,,,0.05,Wunderground v.1.15,2013-05-11 12:25:00,
2013-05-11 08:30:00,48.5,46.9,29.85,NW,314,1.0,1.0,94,0.00,,,0.05,Wunderground v.1.15,2013-05-11 12:30:00,
2013-05-11 08:35:00,48.5,46.9,29.85,North,353,1.0,1.0,94,0.00,,,0.05,Wunderground v.1.15,2013-05-11 12:35:00,
2013-05-11 08:40:00,48.5,46.9,29.85,West,264,1.0,1.0,94,0.00,,,0.05,Wunderground v.1.15,2013-05-11 12:40:00,
2013-05-11 08:45:00,48.5,46.9,29.85,North,8,2.0,2.0,94,0.00,,,0.05,Wunderground v.1.15,2013-05-11 12:45:00,
2013-05-11 08:50:00,48.5,46.9,29.85,NNE,23,3.0,-999.0,94,0.00,,,0.05,Wunderground v.1.15,2013-05-11 12:50:00,
2013-05-11 08:55:00,48.3,46.7,29.85,NNE,23,3.0,-999.0,94,0.00,,,0.05,Wunderground v.1.15,2013-05-11 12:55:00,
2013-05-11 09:00:00,48.3,46.9,29.85,NE,45,2.0,-999.0,95,0.00,,,0.05,Wunderground v.1.15,2013-05-11 13:00:00,
2013-05-11 09:05:00,48.3,46.9,29.85,NNE,23,2.0,-999.0,95,0.00,,,0.05,Wunderground v.1.15,2013-05-11 13:05:00,
2013-05-11 09:10:00,48.3,46.9,29.85,WNW,293,1.0,-999.0,95,0.00,,,0.05,Wunderground v.1.15,2013-05-11 13:10:00,
2013-05-11 09:15:00,48.4,46.8,29.85,NE,45,2.0,-999.0,94,0.00,,,0.05,Wunderground v.1.15,2013-05-11 13:15:00,
2013-05-11 09:20:00,48.6,47.0,29.85,NE,45,2.0,-999.0,94,0.00,,,0.05,Wunderground v.1.15,2013-05-11 13:20:00,
2013-05-11 09:25:00,48.9,47.2,29.85,North,0,2.0,-999.0,94,0.00,,,0.05,Wunderground v.1.15,2013-05-11 13:25:00,
2013-05-11 09:30:00,49.3,47.6,29.85,North,0,1.0,-999.0,94,0.00,,,0.05,Wunderground v.1.15,2013-05-11 13:30:00,
2013-05-11 09:35:00,49.9,47.7,29.86,West,270,2.0,-999.0,92,0.00,,,0.05,Wunderground v.1.15,2013-05-11 13:35:00,
2013-05-11 09:40:00,49.9,47.4,29.86,WNW,293,2.0,-999.0,91,0.00,,,0.05,Wunderground v.1.15,2013-05-11 13:40:00,
2013-05-11 09:45:00,50.0,47.5,29.85,WSW,248,1.0,-999.0,91,0.00,,,0.05,Wunderground v.1.15,2013-05-11 13:45:00,
2013-05-11 09:50:00,50.2,47.7,29.85,NE,45,3.0,-999.0,91,0.00,,,0.05,Wunderground v.1.15,2013-05-11 13:50:00,
2013-05-11 09:55:00,50.0,47.5,29.85,NNE,23,3.0,-999.0,91,0.00,,,0.05,Wunderground v.1.15,2013-05-11 13:55:00,
2013-05-11 10:00:00,49.7,47.2,29.86,NE,45,3.0,-999.0,91,0.00,,,0.05,Wunderground v.1.15,2013-05-11 14:00:00,
2013-05-11 10:05:00,49.7,47.2,29.85,NNE,23,2.0,-999.0,91,0.00,,,0.05,Wunderground v.1.15,2013-05-11 14:05:00,
2013-05-11 10:10:00,49.5,47.0,29.85,NNE,23,3.0,-999.0,91,0.00,,,0.05,Wunderground v.1.15,2013-05-11 14:10:00,
2013-05-11 10:15:00,49.5,47.0,29.85,NNE,23,3.0,-999.0,91,0.00,,,0.05,Wunderground v.1.15,2013-05-11 14:15:00,
2013-05-11 10:20:00,49.6,47.1,29.85,NNE,23,1.0,-999.0,91,0.00,,,0.05,Wunderground v.1.15,2013-05-11 14:20:00,
2013-05-11 10:25:00,49.6,47.1,29.86,SSE,158,1.0,-999.0,91,0.00,,,0.05,Wunderground v.1.15,2013-05-11 14:25:00,
2013-05-11 10:30:00,49.8,47.3,29.85,NE,45,4.0,-999.0,91,0.00,,,0.05,Wunderground v.1.15,2013-05-11 14:30:00,
2013-05-11 10:35:00,49.7,46.9,29.85,NNW,338,1.0,-999.0,90,0.00,,,0.05,Wunderground v.1.15,2013-05-11 14:35:00,
2013-05-11 10:40:00,49.8,47.3,29.85,NNE,23,1.0,-999.0,91,0.00,,,0.05,Wunderground v.1.15,2013-05-11 14:40:00,
2013-05-11 10:45:00,50.1,47.3,29.86,NE,45,1.0,-999.0,90,0.00,,,0.05,Wunderground v.1.15,2013-05-11 14:45:00,
2013-05-11 10:50:00,50.1,47.3,29.86,North,0,1.0,-999.0,90,0.00,,,0.05,Wunderground v.1.15,2013-05-11 14:50:00,
2013-05-11 10:55:00,50.3,47.5,29.86,West,270,1.0,-999.0,90,0.00,,,0.05,Wunderground v.1.15,2013-05-11 14:55:00,
2013-05-11 11:00:00,50.4,47.3,29.86,NE,43,1.0,3.0,89,0.00,,,0.05,Wunderground v.1.15,2013-05-11 15:00:00,
2013-05-11 11:05:00,50.4,47.3,29.86,NNE,23,3.0,-999.0,89,0.00,,,0.05,Wunderground v.1.15,2013-05-11 15:05:00,
2013-05-11 11:10:00,50.5,47.4,29.86,North,4,2.0,2.0,89,0.00,,,0.05,Wunderground v.1.15,2013-05-11 15:10:00,
2013-05-11 11:15:00,50.6,47.5,29.86,NNE,15,2.0,2.0,89,0.00,,,0.05,Wunderground v.1.15,2013-05-11 15:15:00,
2013-05-11 11:20:00,50.7,47.6,29.86,NNE,23,1.0,-999.0,89,0.00,,,0.05,Wunderground v.1.15,2013-05-11 15:20:00,
2013-05-11 11:25:00,51.1,48.0,29.86,North,1,1.0,1.0,89,0.00,,,0.05,Wunderground v.1.15,2013-05-11 15:25:00,
2013-05-11 11:30:00,51.1,47.7,29.86,NNE,25,1.0,1.0,88,0.00,,,0.05,Wunderground v.1.15,2013-05-11 15:30:00,
2013-05-11 11:35:00,51.3,48.2,29.86,East,93,1.0,1.0,89,0.00,,,0.05,Wunderground v.1.15,2013-05-11 15:35:00,
2013-05-11 11:40:00,51.7,48.6,29.87,South,176,0.0,2.0,89,0.00,,,0.05,Wunderground v.1.15,2013-05-11 15:40:00,
2013-05-11 11:45:00,51.7,48.0,29.86,NNW,327,1.0,2.0,87,0.00,,,0.05,Wunderground v.1.15,2013-05-11 15:45:00,
2013-05-11 11:50:00,51.6,48.2,29.87,NE,45,2.0,-999.0,88,0.00,,,0.05,Wunderground v.1.15,2013-05-11 15:50:00,
2013-05-11 11:55:00,51.5,48.1,29.87,NE,39,1.0,2.0,88,0.00,,,0.05,Wunderground v.1.15,2013-05-11 15:55:00,
2013-05-11 12:00:00,51.6,48.5,29.87,NE,45,1.0,-999.0,89,0.00,,,0.05,Wunderground v.1.15,2013-05-11 16:00:00,
2013-05-11 12:05:00,51.8,48.7,29.87,WSW,241,1.0,4.0,89,0.00,,,0.05,Wunderground v.1.15,2013-05-11 16:05:00,
2013-05-11 12:10:00,51.7,48.3,29.87,SSW,208,3.0,4.0,88,0.00,,,0.05,Wunderground v.1.15,2013-05-11 16:10:00,
2013-05-11 12:15:00,51.6,48.5,29.86,WNW,286,3.0,4.0,89,0.00,,,0.05,Wunderground v.1.15,2013-05-11 16:15:00,
2013-05-11 12:20:00,51.4,48.3,29.86,WSW,241,2.0,3.0,89,0.00,,,0.05,Wunderground v.1.15,2013-05-11 16:20:00,
2013-05-11 12:25:00,51.3,48.2,29.86,WSW,239,2.0,3.0,89,0.00,,,0.05,Wunderground v.1.15,2013-05-11 16:25:00,
2013-05-11 12:30:00,51.4,48.6,29.86,WSW,248,2.0,-999.0,90,0.00,,,0.05,Wunderground v.1.15,2013-05-11 16:30:00,
2013-05-11 12:35:00,51.3,48.5,29.86,West,266,2.0,2.0,90,0.00,,,0.05,Wunderground v.1.15,2013-05-11 16:35:00,
2013-05-11 12:40:00,51.4,48.6,29.86,WNW,286,1.0,2.0,90,0.00,,,0.05,Wunderground v.1.15,2013-05-11 16:40:00,
2013-05-11 12:45:00,51.5,48.7,29.86,South,177,1.0,2.0,90,0.00,,,0.05,Wunderground v.1.15,2013-05-11 16:45:00,
2013-05-11 12:50:00,51.6,48.8,29.86,NW,315,1.0,-999.0,90,0.00,,,0.05,Wunderground v.1.15,2013-05-11 16:50:00,
2013-05-11 12:55:00,52.0,49.2,29.86,NE,49,1.0,3.0,90,0.00,,,0.05,Wunderground v.1.15,2013-05-11 16:55:00,
2013-05-11 13:00:00,51.9,48.8,29.86,WNW,283,1.0,1.0,89,0.00,,,0.05,Wunderground v.1.15,2013-05-11 17:00:00,
2013-05-11 13:05:00,51.8,48.7,29.86,WNW,293,1.0,-999.0,89,0.00,,,0.05,Wunderground v.1.15,2013-05-11 17:05:00,
2013-05-11 13:10:00,51.7,48.6,29.86,WSW,249,2.0,2.0,89,0.00,,,0.05,Wunderground v.1.15,2013-05-11 17:10:00,
2013-05-11 13:15:00,51.8,48.7,29.86,West,262,2.0,2.0,89,0.00,,,0.05,Wunderground v.1.15,2013-05-11 17:15:00,
2013-05-11 13:20:00,52.0,48.9,29.86,WSW,256,2.0,2.0,89,0.00,,,0.05,Wunderground v.1.15,2013-05-11 17:20:00,
2013-05-11 13:25:00,52.2,49.1,29.86,West,278,1.0,2.0,89,0.00,,,0.05,Wunderground v.1.15,2013-05-11 17:25:00,
2013-05-11 13:30:00,52.5,49.0,29.86,WSW,241,2.0,3.0,88,0.00,,,0.05,Wunderground v.1.15,2013-05-11 17:30:00,
2013-05-11 13:35:00,52.4,48.6,29.86,WSW,241,3.0,3.0,87,0.00,,,0.05,Wunderground v.1.15,2013-05-11 17:35:00,
2013-05-11 13:40:00,52.5,49.0,29.86,NW,315,1.0,-999.0,88,0.00,,,0.05,Wunderground v.1.15,2013-05-11 17:40:00,
2013-05-11 13:45:00,52.5,48.7,29.86,North,9,2.0,4.0,87,0.00,,,0.05,Wunderground v.1.15,2013-05-11 17:45:00,
2013-05-11 13:50:00,52.9,49.4,29.86,West,262,2.0,4.0,88,0.00,,,0.05,Wunderground v.1.15,2013-05-11 17:50:00,
2013-05-11 13:55:00,53.1,49.0,29.86,West,273,2.0,4.0,86,0.00,,,0.05,Wunderground v.1.15,2013-05-11 17:55:00,
2013-05-11 14:00:00,53.0,49.2,29.86,SW,225,2.0,-999.0,87,0.00,,,0.05,Wunderground v.1.15,2013-05-11 18:00:00,
2013-05-11 14:05:00,53.3,49.2,29.86,SSW,211,2.0,4.0,86,0.00,,,0.05,Wunderground v.1.15,2013-05-11 18:05:00,
2013-05-11 14:10:00,53.3,49.2,29.86,West,262,3.0,3.0,86,0.00,,,0.05,Wunderground v.1.15,2013-05-11 18:10:00,
2013-05-11 14:15:00,53.8,50.0,29.86,East,98,2.0,3.0,87,0.00,,,0.05,Wunderground v.1.15,2013-05-11 18:15:00,
2013-05-11 14:20:00,54.0,49.6,29.86,WNW,293,2.0,2.0,85,0.00,,,0.05,Wunderground v.1.15,2013-05-11 18:20:00,
2013-05-11 14:25:00,53.9,49.2,29.86,WNW,283,3.0,3.0,84,0.00,,,0.05,Wunderground v.1.15,2013-05-11 18:25:00,
2013-05-11 14:30:00,54.0,49.6,29.86,SSW,201,3.0,3.0,85,0.00,,,0.05,Wunderground v.1.15,2013-05-11 18:30:00,
2013-05-11 14:35:00,54.3,49.9,29.86,WNW,287,3.0,3.0,85,0.00,,,0.05,Wunderground v.1.15,2013-05-11 18:35:00,
2013-05-11 14:40:00,54.2,49.5,29.86,SW,233,3.0,6.0,84,0.00,,,0.05,Wunderground v.1.15,2013-05-11 18:40:00,
2013-05-11 14:45:00,54.2,49.5,29.85,West,270,3.0,-999.0,84,0.00,,,0.05,Wunderground v.1.15,2013-05-11 18:45:00,
2013-05-11 14:50:00,54.3,49.6,29.85,West,268,2.0,2.0,84,0.00,,,0.05,Wunderground v.1.15,2013-05-11 18:50:00,
2013-05-11 14:55:00,54.4,49.3,29.86,SSW,205,2.0,3.0,83,0.00,,,0.05,Wunderground v.1.15,2013-05-11 18:55:00,
2013-05-11 15:00:00,54.3,49.2,29.86,West,278,2.0,2.0,83,0.00,,,0.05,Wunderground v.1.15,2013-05-11 19:00:00,
2013-05-11 15:05:00,54.4,49.3,29.86,SW,225,3.0,-999.0,83,0.00,,,0.05,Wunderground v.1.15,2013-05-11 19:05:00,
2013-05-11 15:10:00,54.2,49.5,29.85,WSW,246,2.0,2.0,84,0.00,,,0.05,Wunderground v.1.15,2013-05-11 19:10:00,
2013-05-11 15:15:00,54.2,49.5,29.86,NW,324,2.0,2.0,84,0.00,,,0.05,Wunderground v.1.15,2013-05-11 19:15:00,
2013-05-11 15:20:00,54.3,49.6,29.85,West,271,1.0,1.0,84,0.00,,,0.05,Wunderground v.1.15,2013-05-11 19:20:00,
2013-05-11 15:25:00,54.3,49.6,29.85,West,270,2.0,-999.0,84,0.00,,,0.05,Wunderground v.1.15,2013-05-11 19:25:00,
2013-05-11 15:30:00,54.6,49.9,29.85,SW,217,2.0,3.0,84,0.00,,,0.05,Wunderground v.1.15,2013-05-11 19:30:00,
2013-05-11 15:35:00,54.7,50.0,29.85,SE,129,2.0,3.0,84,0.00,,,0.05,Wunderground v.1.15,2013-05-11 19:35:00,
2013-05-11 15:40:00,55.2,50.8,29.85,SSE,163,3.0,5.0,85,0.00,,,0.05,Wunderground v.1.15,2013-05-11 19:40:00,
2013-05-11 15:45:00,55.5,50.1,29.85,WSW,256,4.0,5.0,82,0.00,,,0.05,Wunderground v.1.15,2013-05-11 19:45:00,
2013-05-11 15:50:00,55.9,51.1,29.85,West,269,3.0,3.0,84,0.00,,,0.05,Wunderground v.1.15,2013-05-11 19:50:00,
2013-05-11 15:55:00,56.1,51.0,29.85,SW,225,3.0,-999.0,83,0.00,,,0.05,Wunderground v.1.15,2013-05-11 19:55:00,
2013-05-11 16:00:00,56.6,51.2,29.85,SSW,201,3.0,3.0,82,0.00,,,0.05,Wunderground v.1.15,2013-05-11 20:00:00,
2013-05-11 16:05:00,56.7,50.9,29.85,SSW,203,5.0,-999.0,81,0.00,,,0.05,Wunderground v.1.15,2013-05-11 20:05:00,
2013-05-11 16:10:00,56.7,50.3,29.84,SSW,199,5.0,5.0,79,0.00,,,0.05,Wunderground v.1.15,2013-05-11 20:10:00,
2013-05-11 16:15:00,56.6,50.5,29.84,South,183,5.0,7.0,80,0.00,,,0.05,Wunderground v.1.15,2013-05-11 20:15:00,
2013-05-11 16:20:00,56.6,50.5,29.84,South,181,5.0,5.0,80,0.00,,,0.05,Wunderground v.1.15,2013-05-11 20:20:00,
2013-05-11 16:25:00,56.7,51.3,29.84,SW,215,4.0,5.0,82,0.00,,,0.05,Wunderground v.1.15,2013-05-11 20:25:00,
2013-05-11 16:30:00,56.7,50.6,29.84,South,180,7.0,-999.0,80,0.00,,,0.05,Wunderground v.1.15,2013-05-11 20:30:00,
2013-05-11 16:35:00,56.4,50.3,29.84,SW,217,5.0,5.0,80,0.00,,,0.05,Wunderground v.1.15,2013-05-11 20:35:00,
2013-05-11 16:40:00,56.4,50.3,29.84,SSW,207,4.0,4.0,80,0.00,,,0.05,Wunderground v.1.15,2013-05-11 20:40:00,
2013-05-11 16:45:00,56.4,50.6,29.84,WSW,242,3.0,4.0,81,0.00,,,0.05,Wunderground v.1.15,2013-05-11 20:45:00,
2013-05-11 16:50:00,56.3,50.5,29.84,SSW,200,4.0,5.0,81,0.00,,,0.05,Wunderground v.1.15,2013-05-11 20:50:00,
2013-05-11 16:55:00,56.3,50.5,29.83,SW,225,4.0,-999.0,81,0.00,,,0.05,Wunderground v.1.15,2013-05-11 20:55:00,
2013-05-11 17:00:00,56.1,50.3,29.84,South,184,5.0,7.0,81,0.00,,,0.05,Wunderground v.1.15,2013-05-11 21:00:00,
2013-05-11 17:05:00,56.1,50.3,29.84,SSW,203,7.0,-999.0,81,0.00,,,0.05,Wunderground v.1.15,2013-05-11 21:05:00,
2013-05-11 17:10:00,55.9,50.2,29.84,SSW,211,6.0,6.0,81,0.00,,,0.05,Wunderground v.1.15,2013-05-11 21:10:00,
2013-05-11 17:15:00,55.9,50.5,29.84,SSW,210,5.0,6.0,82,0.00,,,0.05,Wunderground v.1.15,2013-05-11 21:15:00,
2013-05-11 17:20:00,56.0,50.6,29.83,WSW,241,5.0,5.0,82,0.00,,,0.05,Wunderground v.1.15,2013-05-11 21:20:00,
2013-05-11 17:25:00,56.2,50.8,29.83,SSW,196,4.0,5.0,82,0.00,,,0.05,Wunderground v.1.15,2013-05-11 21:25:00,
2013-05-11 17:30:00,56.7,51.3,29.83,SSW,205,4.0,6.0,82,0.00,,,0.05,Wunderground v.1.15,2013-05-11 21:30:00,
2013-05-11 17:35:00,57.1,50.6,29.83,SW,214,5.0,10.0,79,0.00,,,0.05,Wunderground v.1.15,2013-05-11 21:35:00,
2013-05-11 17:45:00,57.5,51.0,29.83,WSW,246,5.0,6.0,79,0.00,,,0.05,Wunderground v.1.15,2013-05-11 21:45:00,
2013-05-11 17:50:00,57.5,50.3,29.83,South,188,5.0,8.0,77,0.00,,,0.05,Wunderground v.1.15,2013-05-11 21:50:00,
2013-05-11 17:55:00,57.2,49.7,29.83,SW,222,6.0,8.0,76,0.00,,,0.05,Wunderground v.1.15,2013-05-11 21:55:00,
2013-05-11 18:05:00,56.8,50.0,29.83,SW,225,4.0,8.0,78,0.00,,,0.05,Wunderground v.1.15,2013-05-11 22:05:00,
2013-05-11 18:10:00,56.5,49.7,29.84,SSW,196,5.0,5.0,78,0.00,,,0.05,Wunderground v.1.15,2013-05-11 22:10:00,
2013-05-11 18:15:00,56.2,49.8,29.84,SW,224,5.0,5.0,79,0.00,,,0.05,Wunderground v.1.15,2013-05-11 22:15:00,
2013-05-11 18:20:00,55.9,49.8,29.84,SSW,200,6.0,6.0,80,0.00,,,0.05,Wunderground v.1.15,2013-05-11 22:20:00,
2013-05-11 18:25:00,55.7,50.0,29.84,SW,232,6.0,6.0,81,0.00,,,0.05,Wunderground v.1.15,2013-05-11 22:25:00,
2013-05-11 18:30:00,55.7,49.6,29.84,SW,222,4.0,4.0,80,0.00,,,0.05,Wunderground v.1.15,2013-05-11 22:30:00,
2013-05-11 18:40:00,55.4,49.0,29.84,SSW,200,5.0,6.0,79,0.00,,,0.05,Wunderground v.1.15,2013-05-11 22:40:00,
2013-05-11 18:45:00,55.3,49.2,29.84,SSW,204,5.0,6.0,80,0.00,,,0.05,Wunderground v.1.15,2013-05-11 22:45:00,
2013-05-11 18:50:00,55.3,49.2,29.84,WSW,238,4.0,4.0,80,0.00,,,0.05,Wunderground v.1.15,2013-05-11 22:50:00,
2013-05-11 18:55:00,55.1,49.0,29.84,SW,226,5.0,6.0,80,0.00,,,0.05,Wunderground v.1.15,2013-05-11 22:55:00,
2013-05-11 19:00:00,55.2,49.1,29.84,West,262,4.0,4.0,80,0.00,,,0.05,Wunderground v.1.15,2013-05-11 23:00:00,
2013-05-11 19:10:00,55.4,49.0,29.84,SW,232,4.0,4.0,79,0.00,,,0.05,Wunderground v.1.15,2013-05-11 23:10:00,
2013-05-11 19:20:00,55.1,49.4,29.84,SSW,198,3.0,3.0,81,0.00,,,0.05,Wunderground v.1.15,2013-05-11 23:20:00,
2013-05-11 19:25:00,55.0,49.3,29.84,NW,322,4.0,4.0,81,0.00,,,0.05,Wunderground v.1.15,2013-05-11 23:25:00,
2013-05-11 19:30:00,54.8,49.1,29.84,SW,219,4.0,4.0,81,0.00,,,0.05,Wunderground v.1.15,2013-05-11 23:30:00,
2013-05-11 19:35:00,54.7,49.3,29.84,SW,219,4.0,4.0,82,0.00,,,0.05,Wunderground v.1.15,2013-05-11 23:35:00,
2013-05-11 19:40:00,54.7,49.3,29.84,WSW,242,3.0,3.0,82,0.00,,,0.05,Wunderground v.1.15,2013-05-11 23:40:00,
2013-05-11 19:50:00,54.6,49.2,29.84,SSW,193,3.0,6.0,82,0.00,,,0.05,Wunderground v.1.15,2013-05-11 23:50:00,
2013-05-11 19:55:00,54.5,49.4,29.84,SSW,205,4.0,6.0,83,0.00,,,0.05,Wunderground v.1.15,2013-05-11 23:55:00,
2013-05-11 20:00:00,54.2,49.1,29.84,SW,218,4.0,4.0,83,0.00,,,0.05,Wunderground v.1.15,2013-05-12 00:00:00,
2013-05-11 20:10:00,53.6,49.2,29.84,SW,219,2.0,3.0,85,0.00,,,0.05,Wunderground v.1.15,2013-05-12 00:10:00,
2013-05-11 20:15:00,53.3,48.9,29.84,SW,225,2.0,3.0,85,0.00,,,0.05,Wunderground v.1.15,2013-05-12 00:15:00,
2013-05-11 20:20:00,53.1,48.7,29.84,SW,222,2.0,3.0,85,0.00,,,0.05,Wunderground v.1.15,2013-05-12 00:20:00,
2013-05-11 20:30:00,52.5,48.7,29.84,SSW,203,2.0,3.0,87,0.00,,,0.05,Wunderground v.1.15,2013-05-12 00:30:00,
2013-05-11 20:35:00,52.5,48.7,29.83,SW,221,3.0,3.0,87,0.00,,,0.05,Wunderground v.1.15,2013-05-12 00:35:00,
2013-05-11 20:40:00,52.4,48.6,29.83,SW,221,2.0,2.0,87,0.00,,,0.05,Wunderground v.1.15,2013-05-12 00:40:00,
2013-05-11 20:45:00,52.4,48.9,29.83,SW,228,2.0,2.0,88,0.00,,,0.05,Wunderground v.1.15,2013-05-12 00:45:00,
2013-05-11 20:50:00,52.4,48.9,29.83,SW,218,2.0,3.0,88,0.00,,,0.05,Wunderground v.1.15,2013-05-12 00:50:00,
2013-05-11 20:55:00,52.5,49.0,29.83,SW,226,2.0,3.0,88,0.00,,,0.05,Wunderground v.1.15,2013-05-12 00:55:00,
2013-05-11 21:05:00,52.5,49.0,29.83,SW,222,1.0,2.0,88,0.00,,,0.05,Wunderground v.1.15,2013-05-12 01:05:00,
2013-05-11 21:10:00,52.5,49.0,29.83,SW,229,1.0,2.0,88,0.00,,,0.05,Wunderground v.1.15,2013-05-12 01:10:00,
2013-05-11 21:20:00,52.5,49.0,29.83,SW,222,1.0,1.0,88,0.00,,,0.05,Wunderground v.1.15,2013-05-12 01:20:00,
2013-05-11 21:25:00,52.5,49.0,29.83,SW,235,1.0,1.0,88,0.00,,,0.05,Wunderground v.1.15,2013-05-12 01:25:00,
2013-05-11 21:30:00,52.6,49.4,29.83,SSW,208,1.0,2.0,89,0.00,,,0.05,Wunderground v.1.15,2013-05-12 01:30:00,
2013-05-11 21:35:00,52.7,49.2,29.83,SSW,203,3.0,3.0,88,0.00,,,0.05,Wunderground v.1.15,2013-05-12 01:35:00,
2013-05-11 21:40:00,52.7,49.2,29.83,SSW,204,3.0,3.0,88,0.00,,,0.05,Wunderground v.1.15,2013-05-12 01:40:00,
2013-05-11 21:50:00,52.9,49.4,29.83,SW,219,3.0,3.0,88,0.00,,,0.05,Wunderground v.1.15,2013-05-12 01:50:00,
2013-05-11 22:00:00,53.0,49.5,29.83,South,187,4.0,5.0,88,0.00,,,0.05,Wunderground v.1.15,2013-05-12 02:00:00,
2013-05-11 22:10:00,52.9,49.4,29.84,SW,217,3.0,3.0,88,0.00,,,0.05,Wunderground v.1.15,2013-05-12 02:10:00,
2013-05-11 22:15:00,52.7,49.2,29.84,SSW,207,3.0,3.0,88,0.00,,,0.05,Wunderground v.1.15,2013-05-12 02:15:00,
2013-05-11 22:20:00,52.7,49.2,29.84,SW,214,3.0,3.0,88,0.00,,,0.05,Wunderground v.1.15,2013-05-12 02:20:00,
2013-05-11 22:30:00,52.6,49.4,29.84,SW,215,4.0,4.0,89,0.00,,,0.05,Wunderground v.1.15,2013-05-12 02:30:00,
2013-05-11 22:40:00,52.7,49.5,29.84,SW,218,4.0,6.0,89,0.00,,,0.05,Wunderground v.1.15,2013-05-12 02:40:00,
2013-05-11 22:45:00,52.8,49.6,29.84,SSW,201,4.0,7.0,89,0.00,,,0.05,Wunderground v.1.15,2013-05-12 02:45:00,
2013-05-11 22:50:00,52.8,49.6,29.85,SW,217,5.0,5.0,89,0.00,,,0.05,Wunderground v.1.15,2013-05-12 02:50:00,
2013-05-11 22:55:00,52.8,49.6,29.85,SW,225,5.0,5.0,89,0.00,,,0.06,Wunderground v.1.15,2013-05-12 02:55:00,
2013-05-11 23:00:00,52.6,49.8,29.85,SSE,158,6.0,6.0,90,0.00,,,0.06,Wunderground v.1.15,2013-05-12 03:00:00,
2013-05-11 23:10:00,50.5,45.8,29.88,SSW,211,7.0,7.0,84,0.08,,,0.08,Wunderground v.1.15,2013-05-12 03:10:00,
2013-05-11 23:20:00,48.9,44.9,29.88,WNW,291,3.0,3.0,86,0.00,,,0.08,Wunderground v.1.15,2013-05-12 03:20:00,
2013-05-11 23:25:00,48.4,45.0,29.88,NNW,339,2.0,4.0,88,0.00,,,0.08,Wunderground v.1.15,2013-05-12 03:25:00,
2013-05-11 23:30:00,48.1,44.7,29.88,SW,235,2.0,6.0,88,0.00,,,0.08,Wunderground v.1.15,2013-05-12 03:30:00,
2013-05-11 23:40:00,47.6,43.9,29.89,SW,224,3.0,4.0,87,0.00,,,0.08,Wunderground v.1.15,2013-05-12 03:40:00,
2013-05-11 23:45:00,47.3,43.3,29.89,NNE,15,4.0,9.0,86,0.00,,,0.08,Wunderground v.1.15,2013-05-12 03:45:00,
2013-05-11 23:50:00,46.9,42.9,29.90,NNW,344,5.0,5.0,86,0.00,,,0.08,Wunderground v.1.15,2013-05-12 03:50:00,
2013-05-11 23:55:00,46.7,42.7,29.90,West,262,5.0,5.0,86,0.00,,,0.08,Wunderground v.1.15,2013-05-12 03:55:00,